Location: Newark
(44.1667°N, 8.2500°E)
Time: 02:05:25
(UTC+00:00)

S-56A Canister/Altair - Pass Details

Date: 15 December 2019
Orbit: 634 x 2498 km, 38.9° (Epoch: 20 January)

Event Time Altitude Azimuth Distance (km) Brightness Sun altitude
Rises 09:11:48 0° 247° (WSW) 5,418 11.8 16.3°
Reaches altitude 10° 09:15:03 10° 244° (WSW) 4,613 11.5 16.6°
Maximum altitude 09:28:29 67° 166° (SSE) 2,615 10.9 17.7°
Drops below altitude 10° 09:43:18 10° 89° (E) 5,041 12.1 18.9°
Sets 09:47:02 0° 87° (E) 5,930 12.3 19.2°
